This is the latest recevied weather packets stored in our database for station/object K7CTM. If no packets are shown the sender has not sent any weather packets the latest 10 day(s).
| Time | Temp. | Humidity | Pressure | Rain* | Wind** | Luminosity | Snow |
|---|---|---|---|---|---|---|---|
| 1777985739 | -0.56° C | 73% | 1026.9 hPa | 0 mm | - | 46 W/m² | - |
| 1777985436 | -0.56° C | 73% | 1026.8 hPa | 0 mm | - | 36 W/m² | - |
| 1777985133 | -0.56° C | 73% | 1027 hPa | 0 mm | - | 32 W/m² | - |
| 1777984829 | -0.56° C | 73% | 1026.9 hPa | 0 mm | - | 28 W/m² | - |
| 1777984526 | -0.56° C | 74% | 1026.9 hPa | 0 mm | - | 23 W/m² | - |
| 1777984222 | -1.11° C | 73% | 1027 hPa | 0 mm | - | 19 W/m² | - |
| 1777983919 | -1.11° C | 74% | 1027 hPa | 0 mm | - | 14 W/m² | - |
| 1777983616 | -1.11° C | 74% | 1026.9 hPa | 0 mm | - | 12 W/m² | - |
| 1777983312 | -1.11° C | 74% | 1026.9 hPa | 0 mm | - | 9 W/m² | - |
| 1777983009 | -1.11° C | 74% | 1027.2 hPa | 0 mm | - | 7 W/m² | - |
| 1777982705 | -1.11° C | 74% | 1027 hPa | 0 mm | - | 5 W/m² | - |
| 1777982405 | -1.11° C | 74% | 1026.9 hPa | 0 mm | - | 3 W/m² | - |
| 1777982100 | -1.11° C | 74% | 1027.1 hPa | 0 mm | - | 2 W/m² | - |
| 1777981798 | -1.11° C | 74% | 1027.2 hPa | 0 mm | - | 1 W/m² | - |
| 1777981495 | -1.11° C | 74% | 1026.9 hPa | 0 mm | - | 0 W/m² | - |
| 1777981191 | -1.11° C | 75% | 1026.9 hPa | 0 mm | - | 0 W/m² | - |
| 1777980888 | -1.11° C | 75% | 1027 hPa | 0 mm | - | 0 W/m² | - |
| 1777980583 | -1.11° C | 75% | 1027.1 hPa | 0 mm | - | 0 W/m² | - |
| 1777980282 | -1.11° C | 76% | 1027.2 hPa | 0 mm | - | 0 W/m² | - |
| 1777979978 | -1.11° C | 75% | 1027.1 hPa | 0 mm | - | 0 W/m² | - |
| 1777979678 | -1.11° C | 74% | 1026.9 hPa | 0 mm | - | 0 W/m² | - |
| 1777979374 | -1.11° C | 74% | 1027.1 hPa | 0 mm | - | 0 W/m² | - |
| 1777979071 | -1.11° C | 74% | 1026.9 hPa | 0 mm | - | 0 W/m² | - |
| 1777978768 | -1.11° C | 74% | 1026.9 hPa | 0 mm | - | 0 W/m² | - |
| 1777978465 | -0.56° C | 72% | 1026.9 hPa | 0 mm | - | 0 W/m² | - |
* Rain latest hour (hover to see other rain measurements)
** Current wind speed in m/s (hover to see current wind gust speed)